Regional Weather Roundup
Issued by NWS

Home | Current Version | Previous Version | Text Only | Print | Product List | Glossary Off
Versions: 1 2 3 4 5 6 7 8 9 10 11 12 13 14 15 16 17 18 19 20 21 22 23 24 25 26 27 28 29 30 31 32 33 34 35 36 37 38 39 40 41 42 43 44 45 46 47 48 49 50

000
ASUS43 KIND 011709
RWRIN

WEATHER ROUNDUP FOR INDIANA
NATIONAL WEATHER SERVICE INDIANAPOLIS IN
100 PM EDT TUE SEP 01 2015

NOTE: "FAIR" INDICATES FEW OR NO CLOUDS BELOW 12,000 FEET WITH NO
SIGNIFICANT WEATHER AND/OR OBSTRUCTIONS TO VISIBILITY.

* - STATION DOES NOT REPORT WEATHER SUCH AS PRECIPITATION OR FOG.

+ - STATION NOT QUALITY CONTROLLED BY THE NATIONAL WEATHER SERVICE.
    USE DATA WITH CAUTION...ESPECIALLY DEWPOINT AND RELATIVE
    HUMIDITY OBSERVATIONS.

INZ001>003-010>013-019-020-011800-
NORTHWEST INDIANA

CITY           SKY/WX    TMP DP  RH WIND       PRES   REMARKS
GARY /AIRPORT/ PTSUNNY   84  72  65 S14       30.08R
KNOX *+        PTSUNNY   81  70  69 S12       30.09F
LA PORTE +     MOSUNNY   84  76  77 SW10      30.10S
MICHIGAN CITY+ MOSUNNY   82  70  65 S12       30.08S
MONTICELLO +   MOSUNNY   81  70  69 SW7       30.10F
RENSSELAER +   PTSUNNY   79  70  73 W6        30.11F
VALPARAISO     CLOUDY    81  71  71 S15       30.10S

$$

LMZ046-743>745-011800-
SOUTHERN LAKE MICHIGAN

STATION/POSITION TIME  TEMP    WIND        PRES    WAVE
                       AIR SEA DIR/SP/G            HT
                 (UTC) (F)     (DEG/KT/KT) (MB)    (FT)
BURNS HARBOR     1600   81     180/  8/ 10 1018.6S
MICHIGAN CITY    1600   80     150/ 10/ 11   N/A
5NW MICH CITY    1700   78 73  200/  8/ 10   N/A     0

$$

INZ004-005-014>016-021>024-011800-
NORTH CENTRAL INDIANA

CITY           SKY/WX    TMP DP  RH WIND       PRES   REMARKS
ELKHART        MOSUNNY   84  72  65 SW6       30.09F
GOSHEN         PTSUNNY   85  71  63 S10       30.09F
LOGANSPORT +   MOSUNNY   82  66  57 W10G16    30.12F
PERU/GRISSOM   PTSUNNY   84  70  63 W14G20    30.11S
ROCHESTER +    MOSUNNY   84  68  58 SW12G17   30.12S
SOUTH BEND     MOSUNNY   83  72  69 S14       30.09F
WARSAW +       MOSUNNY   82  72  69 S7        30.11S

$$

INZ006>009-017-018-025>027-011800-
NORTHEAST INDIANA

CITY           SKY/WX    TMP DP  RH WIND       PRES   REMARKS
ANGOLA *+      PTSUNNY   84  72  65 VRB3      30.11S
AUBURN +       MOSUNNY   82  68  61 W6        30.12S
FORT WAYNE     MOSUNNY   83  71  67 W8        30.12F
HUNTINGTON +   RAIN      81  68  64 W6        30.12S

$$

INZ028-029-035-036-043>045-051>053-011800-
WEST CENTRAL INDIANA

CITY           SKY/WX    TMP DP  RH WIND       PRES   REMARKS
CRAWFORDSVL +  PTSUNNY   74  66  74 SW7       30.15R
GREENCASTLE +  CLOUDY    77  63  61 CALM      30.15F
LAFAYETTE      MOSUNNY   80  64  58 SW14      30.11F
TERRE HAUTE    CLOUDY    74  64  71 S3        30.14F

$$

INZ030>032-037>040-046>048-054>057-064-065-011800-
CENTRAL INDIANA

CITY           SKY/WX    TMP DP  RH WIND       PRES   REMARKS
ANDERSON       MOSUNNY   81  64  57 SW6       30.14F
COLUMBUS       SUNNY     81  66  61 SW9       30.15F
FRANKFORT +    MOSUNNY   83  71  67 SW12      30.15F
GREENWOOD *+   MOSUNNY   81  64  57 W9        30.15F
INDIANAPOLIS   PTSUNNY   82  67  60 SW15      30.13F
-EAGLE CREEK   PTSUNNY   82  69  64 W10       30.11F THUNDER
KOKOMO *+      MOSUNNY   79  70  73 SW8       30.13S
MARION +       PTSUNNY   83  61  47 W13       30.13F
MT COMFORT *+  MOSUNNY   84  61  45 SW9       30.13F
SHELBYVILLE    PTSUNNY   85  68  56 SW7       30.13F
ZIONSVILLE +   PTSUNNY   79  63  57 SW9       30.14F

$$

INZ033-034-041-042-049-050-058-059-011800-
EAST CENTRAL INDIANA

CITY           SKY/WX    TMP DP  RH WIND       PRES   REMARKS
MUNCIE         MOSUNNY   80  69  69 W9        30.13F

$$

INZ060-061-067>069-081>083-085>088-011800-
SOUTHWEST INDIANA

CITY           SKY/WX    TMP DP  RH WIND       PRES   REMARKS
EVANSVILLE     MOSUNNY   87  68  52 W7        30.13F
HUNTINGBURG *+ MOSUNNY   86  68  54 SW3       30.14F
WASHINGTON +   MOSUNNY   82  62  50 CALM      30.14S

$$

INZ062-063-066-070>080-084-089>092-011800-
SOUTH CENTRAL AND SOUTHEAST INDIANA

CITY           SKY/WX    TMP DP  RH WIND       PRES   REMARKS
BLOOMINGTON    CLOUDY    82  69  64 VRB5      30.15F
MADISON *+     PTSUNNY   84  63  48 CALM      30.17F
NORTH VERNON + PTSUNNY   84  64  51 S5        30.16F
SEYMOUR +      PTSUNNY   88  64  45 W5        30.14F

$$




USA.gov is the U.S. government's official web portal to all federal, state and local government web resources and services.